CW6151 Weather Reports


time (UTC)temp
C
wind
direction
speed
KPH
gust
KPH
rain 1hr
cm
rain 24hr
cm
rain mn
cm
humidity
%
barometer
mb
20260505041508 13 190 4.8 16.1 0.00 0.00 0.00 61 1006.1
20260505041006 14 219 1.6 11.3 0.00 0.00 0.00 61 1006.1
20260505040508 14 224 3.2 11.3 0.00 0.00 0.00 60 1006.0
20260505040006 14 210 0.0 12.9 0.00 0.00 0.00 59 1006.0
20260505035505 14 215 1.6 12.9 0.00 0.00 0.00 59 1006.0
20260505035005 14 207 3.2 20.9 0.00 0.00 0.00 58 1006.0
20260505034505 14 196 0.0 14.5 0.00 0.00 0.00 59 1006.0
20260505034006 15 205 1.6 14.5 0.00 0.00 0.00 58 1006.0
20260505033504 15 178 3.2 14.5 0.00 0.00 0.00 58 1005.9
20260505033004 15 207 1.6 14.5 0.00 0.00 0.00 58 1005.9
20260505032506 15 207 1.6 16.1 0.00 0.00 0.00 57 1005.9
20260505032006 15 195 3.2 16.1 0.00 0.00 0.00 56 1005.9
20260505031503 15 216 1.6 12.9 0.00 0.00 0.00 56 1005.9
20260505031003 15 215 1.6 12.9 0.00 0.00 0.00 56 1005.9
20260505030503 15 184 4.8 12.9 0.00 0.00 0.00 55 1006.0
20260505030003 15 209 3.2 17.7 0.00 0.00 0.00 55 1006.0
20260505025505 15 182 3.2 17.7 0.00 0.00 0.00 55 1006.0
20260505025003 15 208 3.2 14.5 0.00 0.00 0.00 55 1005.9
20260505024503 15 208 1.6 11.3 0.00 0.00 0.00 54 1005.9
20260505024002 15 188 0.0 11.3 0.00 0.00 0.00 54 1005.9
20260505023502 15 209 3.2 11.3 0.00 0.00 0.00 54 1005.9
20260505023002 15 216 1.6 17.7 0.00 0.00 0.00 54 1005.9
20260505022502 16 227 3.2 17.7 0.00 0.00 0.00 53 1005.9
20260505022002 16 231 3.2 16.1 0.00 0.00 0.00 53 1005.9
20260505021501 16 200 3.2 16.1 0.00 0.00 0.00 52 1005.9
20260505021001 16 204 3.2 12.9 0.00 0.00 0.00 52 1005.9
20260505020501 16 201 0.0 17.7 0.00 0.00 0.00 52 1005.9
20260505020002 16 198 3.2 17.7 0.00 0.00 0.00 51 1005.9
20260505015501 16 209 1.6 16.1 0.00 0.00 0.00 51 1005.9
20260505015001 16 196 3.2 19.3 0.00 0.00 0.00 51 1005.6
20260505014503 16 190 1.6 16.1 0.00 0.00 0.00 50 1005.6
20260505014104 16 185 3.2 14.5 0.00 0.00 0.00 50 1005.6
20260505013600 17 196 0.0 19.3 0.00 0.00 0.00 50 1005.4
20260505013100 17 193 6.4 19.3 0.00 0.00 0.00 49 1005.4
20260505012600 17 194 1.6 17.7 0.00 0.00 0.00 49 1005.4
20260505012100 17 213 3.2 16.1 0.00 0.00 0.00 48 1005.0
20260505011600 17 205 4.8 20.9 0.00 0.00 0.00 48 1005.0
20260505011103 17 197 3.2 27.4 0.00 0.00 0.00 48 1005.0
20260505010559 17 188 8.0 27.4 0.00 0.00 0.00 48 1004.7
20260505010104 17 191 6.4 27.4 0.00 0.00 0.00 48 1004.7
20260505005604 17 194 1.6 19.3 0.00 0.00 0.00 47 1004.7
20260505005059 18 174 3.2 20.9 0.00 0.00 0.00 46 1004.3
20260505004559 18 237 4.8 25.7 0.00 0.00 0.00 46 1004.3
20260505004100 18 228 4.8 25.7 0.00 0.00 0.00 45 1004.3
20260505003557 18 192 4.8 19.3 0.00 0.00 0.00 45 1003.9
20260505003104 18 197 4.8 27.4 0.00 0.00 0.00 44 1003.9
20260505002557 18 217 6.4 33.8 0.00 0.00 0.00 44 1003.9
20260505002057 18 226 8.0 33.8 0.00 0.00 0.00 44 1003.4
20260505001558 18 216 6.4 27.4 0.00 0.00 0.00 44 1003.4
20260505001057 18 213 9.7 25.7 0.00 0.00 0.00 43 1003.4
20260505000557 18 205 9.7 24.1 0.00 0.00 0.00 43 1003.0
20260504235557 19 232 0.0 0.0 0.00 0.00 0.00 40 1003.0
20260504235057 19 212 0.0 6.4 0.00 0.00 0.00 39 1002.8
20260504234556 20 222 0.0 16.1 0.00 0.00 0.00 39 1002.8
20260504234055 20 212 0.0 11.3 0.00 0.00 0.00 39 1002.8
20260504233555 20 227 0.0 8.0 0.00 0.00 0.00 38 1002.7
20260504233058 20 228 0.0 12.9 0.00 0.00 0.00 37 1002.7
20260504232559 20 228 1.6 16.1 0.00 0.00 0.00 36 1002.7
20260504232055 21 211 1.6 19.3 0.00 0.00 0.00 36 1002.3
20260504231555 21 240 3.2 19.3 0.00 0.00 0.00 36 1002.3
20260504231054 21 242 4.8 17.7 0.00 0.00 0.00 35 1002.3
20260504230557 21 227 3.2 20.9 0.00 0.00 0.00 35 1002.2
20260504230055 21 196 8.0 20.9 0.00 0.00 0.00 35 1002.2
20260504225554 21 212 3.2 20.9 0.00 0.00 0.00 35 1002.2
20260504225054 21 232 4.8 20.9 0.00 0.00 0.00 34 1002.2
20260504224553 21 234 3.2 19.3 0.00 0.00 0.00 36 1002.2
20260504224056 21 236 0.0 17.7 0.00 0.00 0.00 35 1002.2
20260504223556 21 222 6.4 20.9 0.00 0.00 0.00 34 1002.2
20260504223107 21 227 3.2 20.9 0.00 0.00 0.00 34 1002.2
20260504222553 22 224 6.4 20.9 0.00 0.00 0.00 33 1002.2
20260504222052 22 246 1.6 20.9 0.00 0.00 0.00 32 1002.0
20260504221553 22 232 3.2 12.9 0.00 0.00 0.00 33 1002.0
20260504221052 22 227 0.0 12.9 0.00 0.00 0.00 34 1002.0
20260504220552 22 221 3.2 20.9 0.00 0.00 0.00 32 1002.0
20260504220052 22 217 8.0 25.7 0.00 0.00 0.00 32 1002.0
20260504215555 22 217 9.7 25.7 0.00 0.00 0.00 32 1002.0
20260504215051 22 223 0.0 20.9 0.00 0.00 0.00 33 1002.0
20260504214552 22 292 4.8 20.9 0.00 0.00 0.00 32 1002.0
20260504214152 22 200 11.3 22.5 0.00 0.00 0.00 31 1002.0
20260504213550 22 270 1.6 12.9 0.00 0.00 0.00 31 1002.0
20260504213050 23 221 0.0 17.7 0.00 0.00 0.00 32 1002.0
20260504212552 23 219 1.6 19.3 0.00 0.00 0.00 31 1002.0
20260504212050 23 269 4.8 24.1 0.00 0.00 0.00 30 1002.1
20260504211633 22 275 6.4 24.1 0.00 0.00 0.00 32 1002.1
20260504211049 22 258 1.6 17.7 0.00 0.00 0.00 32 1002.1
20260504210549 22 225 6.4 25.7 0.00 0.00 0.00 31 1002.2
20260504210052 22 248 4.8 25.7 0.00 0.00 0.00 32 1002.2
20260504205549 22 223 0.0 25.7 0.00 0.00 0.00 32 1002.2
20260504205048 22 252 8.0 25.7 0.00 0.00 0.00 31 1002.2
20260504204547 23 209 6.4 25.7 0.00 0.00 0.00 29 1002.2
20260504204047 23 213 4.8 25.7 0.00 0.00 0.00 30 1002.2
20260504203547 23 230 6.4 27.4 0.00 0.00 0.00 29 1002.1
20260504203047 23 227 3.2 32.2 0.00 0.00 0.00 30 1002.1
20260504202547 23 267 3.2 35.4 0.00 0.00 0.00 30 1002.1
20260504202046 23 180 9.7 29.0 0.00 0.00 0.00 29 1002.2
20260504201546 23 197 4.8 27.4 0.00 0.00 0.00 29 1002.2
20260504201045 23 243 3.2 32.2 0.00 0.00 0.00 29 1002.2
20260504200545 23 294 8.0 30.6 0.00 0.00 0.00 30 1002.3
20260504200045 23 223 11.3 25.7 0.00 0.00 0.00 29 1002.3
20260504195544 23 263 3.2 25.7 0.00 0.00 0.00 28 1002.3
20260504195044 23 270 3.2 30.6 0.00 0.00 0.00 30 1002.2
20260504194550 23 224 9.7 25.7 0.00 0.00 0.00 29 1002.2
20260504194043 23 243 3.2 19.3 0.00 0.00 0.00 29 1002.2
20260504193542 23 267 3.2 19.3 0.00 0.00 0.00 29 1002.3
20260504193042 22 218 1.6 29.0 0.00 0.00 0.00 33 1002.3
20260504192542 23 250 9.7 29.0 0.00 0.00 0.00 29 1002.3
20260504192042 23 269 6.4 24.1 0.00 0.00 0.00 29 1002.3
20260504191558 23 225 1.6 32.2 0.00 0.00 0.00 31 1002.3
20260504191042 23 275 8.0 32.2 0.00 0.00 0.00 29 1002.3
20260504190543 23 249 3.2 16.1 0.00 0.00 0.00 29 1002.4
20260504190045 23 236 1.6 14.5 0.00 0.00 0.00 32 1002.4
20260504185538 22 232 1.6 25.7 0.00 0.00 0.00 31 1002.4
20260504185038 22 238 9.7 32.2 0.00 0.00 0.00 30 1002.8
20260504184547 22 229 9.7 32.2 0.00 0.00 0.00 29 1002.8
20260504184036 22 270 4.8 30.6 0.00 0.00 0.00 30 1002.8
20260504183536 22 256 16.1 30.6 0.00 0.00 0.00 31 1002.7
20260504183035 22 224 6.4 29.0 0.00 0.00 0.00 32 1002.7
20260504182534 22 227 6.4 25.7 0.00 0.00 0.00 31 1002.7
20260504182034 22 230 6.4 25.7 0.00 0.00 0.00 31 1002.8
20260504181536 22 262 6.4 24.1 0.00 0.00 0.00 31 1002.8
20260504181033 22 207 9.7 30.6 0.00 0.00 0.00 31 1002.8
20260504180532 22 238 14.5 30.6 0.00 0.00 0.00 32 1002.8
20260504180033 21 286 3.2 30.6 0.00 0.00 0.00 33 1002.8
20260504175531 21 219 8.0 32.2 0.00 0.00 0.00 32 1002.8
20260504175031 21 237 11.3 35.4 0.00 0.00 0.00 31 1003.0
20260504174532 22 240 9.7 30.6 0.00 0.00 0.00 34 1003.0
20260504174029 21 250 14.5 30.6 0.00 0.00 0.00 34 1003.0
20260504173528 21 213 12.9 37.0 0.00 0.00 0.00 34 1003.2
20260504173028 21 196 9.7 30.6 0.00 0.00 0.00 33 1003.2
20260504172528 21 219 8.0 37.0 0.00 0.00 0.00 33 1003.2
20260504172028 21 243 11.3 37.0 0.00 0.00 0.00 34 1003.1
20260504171529 21 239 4.8 48.3 0.00 0.00 0.00 33 1003.1
20260504171028 21 243 17.7 48.3 0.00 0.00 0.00 32 1003.1
20260504170528 21 234 9.7 38.6 0.00 0.00 0.00 35 1003.2
20260504151013 18 238 3.2 19.3 0.00 0.00 0.00 38 1004.5
20260504150512 18 250 3.2 33.8 0.00 0.00 0.00 41 1004.7
20260504141006 17 249 8.0 29.0 0.00 0.00 0.00 42 1005.0
20260504140504 17 184 8.0 29.0 0.00 0.00 0.00 43 1004.9
20260504130550 15 271 0.0 20.9 0.00 0.00 0.00 49 1005.8
20260504110523 6 216 0.0 0.0 0.00 0.00 0.00 78 1006.6
20260504100519 5 218 0.0 0.0 0.00 0.00 0.00 76 1006.4
20260504081514 7 219 0.0 3.2 0.00 0.00 0.00 66 1006.4
20260504081015 7 219 0.0 3.2 0.00 0.00 0.00 65 1006.4
20260504080514 7 219 0.0 4.8 0.00 0.00 0.00 64 1006.3
20260504070106 4 241 0.0 3.2 0.00 0.00 0.00 78 1006.2
20260504050541 1 275 0.0 0.0 0.00 0.00 0.00 80 1006.2
20260504045539 1 275 0.0 0.0 0.00 0.00 0.00 80 1006.2
20260504045038 1 275 0.0 0.0 0.00 0.00 0.00 80 1006.2
20260504044538 1 275 0.0 0.0 0.00 0.00 0.00 80 1006.2
20260504044038 1 275 0.0 0.0 0.00 0.00 0.00 80 1006.2
20260504043539 1 275 0.0 0.0 0.00 0.00 0.00 80 1006.1
20260504043041 1 275 0.0 0.0 0.00 0.00 0.00 79 1006.1
20260504042538 1 275 0.0 0.0 0.00 0.00 0.00 79 1006.1
20260504042039 1 275 0.0 0.0 0.00 0.00 0.00 78 1006.1